User: anonymous   Login
Location: Nena
(32.3271°N, 96.8558°W)
Time: 00:26:29
(UTC+00:00)
Language:

DMSP B5D2-2 - Orbit

View from above orbital plane
View from above orbital plane
View from above satellite
View from above satellite

Ground track
Ground track

The orbit data is extracted from the following two-line orbital elements,

1 14506U 83113A   23027.49486719  .00000388  00000-0  17149-3 0  9998
2 14506  98.2873 208.9947 0010118 286.8090  89.9850 14.28380518 38851
Epoch (UTC): 27 January 2023 11:52:36
Eccentricity: 0.0010118
inclination: 98.2873°
perigee height: 790 km
apogee height: 804 km
right ascension of ascending node: 208.9947°
argument of perigee: 286.8090°
revolutions per day: 14.28380518
mean anomaly at epoch: 89.9850°
orbit number at epoch: 3885

The dashed part of the orbit path shows where the satellite is in the earth's shadow,  

DLR